This demonstration page uses our WeatherBlox Daily Observations layout. Learn more.

Left ArrowRight Arrow

34.02893, -84.19858

Hourly Observations for May 8, 2015

Temp ( °F °C ) Dew Point ( °F °C ) Humidity (%) Winds ( mph kmh ) Pressure ( in mb ) Visibility ( mi km ) Precip ( " mm )
12:53 am 00:53 Clear 64 17.8 58 14.4 81 81 Calm 30.06 1018 7 11 0.00 0.00
1:53 am 01:53 Partly Cloudy with Mist and Fog 63 17.2 59 15 87 87 Calm 30.05 1018 6 10 0.00 0.00
2:53 am 02:53 Mostly Clear with Mist and Fog 62 16.7 59 15 90 90 Calm 30.04 1017 5 8 0.00 0.00
3:53 am 03:53 Clear with Mist and Fog 61 16.1 58 14.4 90 90 Calm 30.04 1017 6 10 0.00 0.00
4:53 am 04:53 Clear with Mist and Fog 59 15 57 13.9 93 93 Calm 30.05 1018 5 8 0.00 0.00
5:53 am 05:53 Mostly Clear with Mist and Fog 59 15 57 13.9 93 93 Calm 30.06 1018 5 8 0.00 0.00
6:53 am 06:53 Sunny with Mist and Fog 59 15 57 13.9 93 93 Calm 30.08 1019 4 6 0.00 0.00
7:53 am 07:53 Sunny with Mist and Fog 64 17.8 60 15.6 87 87 Calm 30.09 1019 3 5 0.00 0.00
8:53 am 08:53 Hazy 71 21.7 60 15.6 68 68 Calm 30.10 1019 4 6 0.00 0.00
9:53 am 09:53 Hazy 75 23.9 60 15.6 60 60 E 5 7 30.10 1019 6 10 0.00 0.00
10:53 am 10:53 Hazy 79 26.1 60 15.6 52 52 VRB 3 6 30.10 1019 6 10 0.00 0.00
11:53 am 11:53 Hazy 82 27.8 59 15 46 46 ENE 3 6 30.09 1019 6 10 0.00 0.00
12:53 pm 12:53 Hazy 81 27.2 57 13.9 44 44 VRB 3 6 30.08 1019 5 8 0.00 0.00
1:53 pm 13:53 Hazy 85 29.4 59 15 42 42 VRB 5 7 30.06 1018 6 10 0.00 0.00
2:53 pm 14:53 Hazy 85 29.4 58 14.4 40 40 VRB 5 7 30.04 1017 6 10 0.00 0.00
3:53 pm 15:53 Hazy 85 29.4 58 14.4 40 40 VRB 6 9 30.01 1016 6 10 0.00 0.00
4:53 pm 16:53 Partly Cloudy 87 30.6 57 13.9 36 36 WNW 7 11 30.00 1016 7 11 0.00 0.00
5:53 pm 17:53 Sunny 86 30 56 13.3 36 36 VRB 7 11 29.99 1016 7 11 0.00 0.00
6:53 pm 18:53 Partly Cloudy 85 29.4 57 13.9 39 39 W 5 7 30.00 1016 7 11 0.00 0.00
7:53 pm 19:53 Sunny 82 27.8 58 14.4 44 44 NNW 5 7 29.99 1016 7 11 0.00 0.00
8:53 pm 20:53 Mostly Clear 78 25.6 60 15.6 54 54 NNE 7 11 30.00 1016 8 13 0.00 0.00
9:53 pm 21:53 Partly Cloudy 77 25 61 16.1 58 58 Calm 30.02 1017 8 13 0.00 0.00
10:53 pm 22:53 Mostly Cloudy 74 23.3 60 15.6 62 62 Calm 30.02 1017 8 13 0.00 0.00
11:53 pm 23:53 Clear 70 21.1 60 15.6 71 71 Calm 30.02 1017 8 13 0.00 0.00

Powered by AerisWeather